Weather History for Gillette, WY

Change the Weather History Date:

Thursday, November 22, 2012

  Actual Average Record
Temperature  
Mean Temperature 24 °F 30 °F  
Max Temperature 39 °F 41 °F 66 °F (1954)
Min Temperature 9 °F 18 °F -16 °F (2010)
Degree Days  
Heating Degree Days 41 35  
Month to date heating degree days 571 666  
Since 1 July heating degree days 1368 1575  
Cooling Degree Days 0 0  
Month to date cooling degree days 0 0  
Year to date cooling degree days 795 502  
Moisture  
Dew Point 24 °F    
Average Humidity 74    
Maximum Humidity 100    
Minimum Humidity 48    
Precipitation  
Precipitation 0.07 in 0.02 in 0.25 in (1940)
Month to date precipitation 0.22 0.43  
Year to date precipitation 8.69 13.37  
Sea Level Pressure  
Sea Level Pressure 30.19 in    
Wind  
Wind Speed 12 mph (WNW)    
Max Wind Speed 25 mph    
Max Gust Speed 32 mph    
Visibility 7 miles    
Events Snow    
T = Trace of Precipitation, MM = Missing Value Source: NWS Daily Summary

Daily Weather History Graph

Daily Weather History Graph

Search for Another Location

Airport:

Trip Planner

Search our weather history database for the weather conditions in past years. The results will help you decide how hot, cold, wet, or windy it might be!

Date:

Astronomy

Nov. 22, 2012 Rise Set
Actual Time 7:07 AM MST 4:28 PM MST
Civil Twilight 6:35 AM MST 5:00 PM MST
Nautical Twilight 6:00 AM MST 5:36 PM MST
Astronomical Twilight 5:25 AM MST 6:10 PM MST
Moon 1:25 PM MST (11/22) 1:18 AM MST (11/22)
Length of Visible Light 10h 24m
Length of Day
9h 20m
Waxing Gibbous, 72% of the Moon is Illuminated
Nov 22
Waxing Gibbous
Nov 28
Full
Dec 6
Last Quarter
Dec 13
New
Dec 19
First Quarter

Hourly Weather History & Observations

Time (MST) Temp. Windchill Dew Point Humidity Pressure Visibility Wind Dir Wind Speed Gust Speed Precip Events Conditions
12:53 AM 36.0 °F 26.0 °F 33.1 °F 89% 29.85 in 10.0 mi NNW 17.3 mph 24.2 mph N/A   Overcast
1:31 AM 35.6 °F 23.4 °F 32.0 °F 87% 29.93 in 7.0 mi NW 25.3 mph 32.2 mph 0.00 in Snow Light Snow
1:53 AM 33.1 °F 22.6 °F 32.0 °F 96% 29.91 in 3.0 mi NW 16.1 mph - 0.00 in Snow Light Snow
2:09 AM 33.8 °F 22.8 °F 32.0 °F 93% 29.96 in 3.0 mi NW 18.4 mph - 0.00 in Snow Light Snow
2:15 AM 33.8 °F 23.9 °F 32.0 °F 93% 29.95 in 1.8 mi NW 15.0 mph - 0.01 in Snow Light Snow
2:26 AM 33.8 °F 23.5 °F 32.0 °F 93% 29.97 in 0.8 mi NW 16.1 mph 24.2 mph 0.02 in Snow Light Snow
2:36 AM 32.0 °F 19.5 °F 32.0 °F 100% 29.96 in 1.0 mi NW 21.9 mph 29.9 mph 0.03 in Snow Light Snow
2:53 AM 32.0 °F 20.5 °F 30.9 °F 96% 29.96 in 1.0 mi NW 18.4 mph 28.8 mph 0.03 in Snow Light Snow
3:20 AM 32.0 °F 21.2 °F 30.2 °F 93% 30.01 in 0.8 mi WNW 16.1 mph - 0.02 in Snow Light Snow
3:47 AM 30.2 °F 20.8 °F 30.2 °F 100% 30.01 in 1.0 mi WNW 11.5 mph - 0.04 in Snow Light Snow
3:53 AM 30.9 °F 23.5 °F 30.0 °F 96% 29.98 in 1.5 mi WNW 8.1 mph 17.3 mph 0.04 in Snow Light Snow
3:57 AM 30.2 °F 24.3 °F 30.2 °F 100% 29.99 in 3.0 mi West 5.8 mph - 0.00 in Snow Light Snow
4:17 AM 30.2 °F 23.4 °F 28.4 °F 93% 30.00 in 10.0 mi WNW 6.9 mph - 0.00 in   Overcast
4:53 AM 32.0 °F 22.1 °F 27.0 °F 82% 30.00 in 10.0 mi West 13.8 mph - 0.00 in   Overcast
5:53 AM 27.0 °F 18.0 °F 23.0 °F 85% 30.06 in 10.0 mi West 9.2 mph - N/A   Clear
6:53 AM 23.0 °F 13.1 °F 19.9 °F 88% 30.10 in 10.0 mi West 9.2 mph - N/A   Clear
7:53 AM 26.1 °F 17.6 °F 19.9 °F 78% 30.12 in 10.0 mi West 8.1 mph - N/A   Partly Cloudy
8:53 AM 30.9 °F 22.2 °F 24.1 °F 76% 30.18 in 10.0 mi West 10.4 mph - N/A   Mostly Cloudy
9:53 AM 32.0 °F 21.6 °F 23.0 °F 69% 30.22 in 10.0 mi West 15.0 mph - N/A   Overcast
10:53 AM 34.0 °F 25.0 °F 25.0 °F 70% 30.25 in 10.0 mi WNW 12.7 mph - N/A   Clear
11:53 AM 36.0 °F 24.4 °F 24.1 °F 62% 30.25 in 10.0 mi NW 23.0 mph - N/A   Mostly Cloudy
12:53 PM 37.9 °F 28.2 °F 24.1 °F 57% 30.25 in 10.0 mi WNW 18.4 mph 26.5 mph N/A   Clear
1:53 PM 37.9 °F 27.1 °F 21.9 °F 53% 30.29 in 10.0 mi NW 23.0 mph 29.9 mph N/A   Clear
2:53 PM 37.9 °F 28.2 °F 19.9 °F 48% 30.32 in 10.0 mi NW 18.4 mph - N/A   Clear
3:53 PM 35.1 °F 24.5 °F 19.9 °F 54% 30.37 in 10.0 mi NW 18.4 mph 24.2 mph N/A   Clear
4:53 PM 30.9 °F 22.2 °F 19.0 °F 61% 30.42 in 10.0 mi NNW 10.4 mph - N/A   Clear
5:53 PM 25.0 °F 18.1 °F 19.9 °F 81% 30.50 in 10.0 mi NW 5.8 mph - N/A   Clear
6:53 PM 25.0 °F 14.8 °F 19.9 °F 81% 30.53 in 10.0 mi NW 10.4 mph - N/A   Clear
7:53 PM 23.0 °F 13.1 °F 19.0 °F 85% 30.56 in 10.0 mi WNW 9.2 mph - N/A   Clear
8:53 PM 21.0 °F 16.2 °F 18.0 °F 88% 30.57 in 10.0 mi Variable 3.5 mph - N/A   Clear
9:53 PM 16.0 °F 10.4 °F 15.1 °F 96% 30.59 in 10.0 mi SE 3.5 mph - N/A   Clear
10:53 PM 10.9 °F 4.7 °F 9.0 °F 92% 30.60 in 10.0 mi SSW 3.5 mph - N/A   Clear
11:53 PM 10.9 °F 2.9 °F 9.0 °F 92% 30.59 in 10.0 mi SW 4.6 mph - N/A   Clear